{"data":{"norad_id":64950,"intl_designator":"2025-158U","name":"STARLINK-34586","alt_names":[],"object_type":"PAYLOAD","status":"ACTIVE","operator":null,"country":"US","launch_date":"2025-07-27","launch_site_code":"AFWTR","launch_vehicle":null,"mission":null,"orbit_class":"UNKNOWN","rcs_meters":null,"size_class":null,"mass_kg":null,"dimensions":null,"purposes":["comms"],"wikipedia_slug":null,"has_3d_model":false,"image_url":null,"decayed_at":null,"tle_current":{"epoch":"2026-09-20T13:48:01.616544Z","epoch_age_seconds":117674,"freshness":"FRESH","line1":"1 64950U 25158U   26263.57501871  .00014658  00000+0  45536-3 0  9997","line2":"2 64950  97.2850 121.8213 0001611  92.4925 267.6502 15.33452054 64702","mean_motion":15.33452054,"eccentricity":0.0001611,"inclination_deg":97.285,"raan_deg":121.8213,"arg_perigee_deg":92.4925,"mean_anomaly_deg":267.6502,"bstar":0.00045536,"rev_number":6470,"period_min":93.905772680911,"perigee_km":464.4196733225,"apogee_km":466.62470031249,"semimajor_km":6843.6591868175,"source":"CELESTRAK","updated_at":"2026-09-21T09:00:35.490003Z"}}}